Location: Heilbronn
(49.1548°N, 9.2780°E)
Time: 16:30:54
(UTC+02:00)

ISS - Pass Details

Date: 05 January 2018
Orbit: 402 x 408 km, 51.6° (Epoch: 18 July)

Event Time Altitude Azimuth Distance (km) Brightness Sun altitude
Exits shadow 06:20:04 52° 332° (NNW) 528 -3.6 -18.2°
Drops below altitude 10° 06:23:41 10° 75° (ENE) 1,503 0.0 -17.6°
Enters shadow 07:17:17 -74° 274° (W) 12,666 3.6 -9.4°
Maximum altitude 07:57:15 75° 16° (NNE) 440 -3.7 -3.6°
